Location: Boone Canyon
(38.3180°N, 119.2504°W)
Time: 18:17:54
(UTC+00:00)

Cosmos 2360 Rocket - Pass Details

Date: 18 September 2020
Orbit: 835 x 844 km, 71.0° (Epoch: 19 October)

Event Time Altitude Azimuth Distance (km) Brightness Sun altitude
Rises 12:45:43 0° 189° (S) 3,384 5.1 -11.7°
Reaches altitude 10° 12:48:11 10° 186° (S) 2,454 4.4 -11.3°
Maximum altitude 12:53:42 59° 108° (ESE) 974 2.9 -10.2°
Drops below altitude 10° 12:59:15 10° 30° (NNE) 2,468 5.2 -9.1°
Sets 13:01:44 0° 27° (NNE) 3,406 5.9 -8.6°
